[[{"header":{"parameterUnit":"m.s-1","parameterCategory":1,"la1":30.2991,"la2":30.254,"lo1":-89.0895,"lo2":-89.0444,"dx":0.0017,"dy":0.0017,"nx":28,"ny":28,"refTime":"2022-11-17T15:00:00:Z","depth":0,"parameterNumber":2,"parameterNumberName":"U-component_of_WINDS"},"data":[0,0,0,0,0,0,0,0,0,0,0,0,0,0,0,0,0,0,0,0,0,0,0,0,0,0,0,0,0,0,0,0,0,0,0,0,0,0,0,0,0,0,0,0,0,0,0,0,0,0,0,0,0,0,0,0,0,0,1.1773,1.1773,0,1.1764,1.1764,1.1763,1.1737,1.1736,1.1736,1.1735,1.1727,1.1727,1.1727,0,0,0,0,0,0,0,0,0,0,0,0,0,1.1768,1.1769,1.1773,1.1773,1.1772,1.1764,1.1764,1.1763,1.1737,1.1736,1.1736,1.1735,1.1727,1.1727,1.1727,0,0,0,0,0,0,0,0,0,0,0,0,0,1.1766,1.1769,1.1773,1.1758,1.1757,1.1764,1.1764,1.1763,1.1737,1.1736,1.1736,1.1735,1.1727,1.1727,1.1727,1.1748,0,0,1.1729,1.1729,0,0,0,0,0,0,0,0,1.1766,1.1766,1.176,1.1759,1.1758,1.1751,1.1759,1.1758,1.1737,1.1745,1.1735,1.1734,1.1735,1.1735,1.1735,1.1747,1.1747,1.1729,1.1729,1.1729,1.173,0,0,0,0,0,0,0,1.1766,1.1766,1.1769,1.176,1.1759,1.1753,1.1751,1.1759,1.1745,1.1744,1.1742,1.1741,1.1735,1.1735,1.1735,1.1747,1.1729,1.1729,1.173,1.173,1.1777,1.1778,0,0,0,0,0,0,1.1768,1.1767,1.1769,1.1769,1.176,1.1753,1.1752,1.1754,1.1745,1.1743,1.1742,1.174,1.1735,1.1734,1.1735,1.1759,1.1729,1.173,1.173,1.1776,1.1777,1.1778,0,0,0,0,0,0,1.1768,1.1769,1.177,1.1767,1.1767,1.1754,1.1757,1.1754,1.1754,1.1743,1.1741,1.1745,1.1734,1.1734,1.1745,1.1758,1.173,1.1731,1.1775,1.1776,1.1778,1.1806,0,0,0,0,0,0,1.1768,1.1769,1.1776,1.1768,1.1767,1.178,1.1757,1.1754,1.1755,1.1753,1.1746,1.1744,1.1733,1.1744,1.1746,1.1758,1.1731,1.1774,1.1775,1.1777,1.1804,1.1809,1.1812,0,0,0,0,0,1.1768,1.1785,1.1777,1.1777,1.1776,1.1781,1.178,1.1768,1.1756,1.1764,1.1757,1.1744,1.1756,1.1746,1.1747,1.176,1.1773,1.1775,1.1777,1.1802,1.1808,1.1812,0,0,0,0,0,0,1.1795,1.1783,1.1774,1.1788,1.1786,1.1776,1.1785,1.1774,1.1775,1.1772,1.1757,1.1756,1.1769,1.1766,1.1754,1.178,1.1762,1.1765,1.1782,1.1787,1.1791,1.1791,1.1731,0,0,0,0,0,1.1802,1.1807,1.1797,1.181,1.1809,1.1797,1.1799,1.179,1.1787,1.1786,1.178,1.1777,1.1781,1.1784,1.1786,1.1804,1.1802,1.1813,1.1817,1.1821,1.1823,1.1833,1.1838,1.1785,1.1785,1.1785,0,0,1.1818,1.1812,1.1816,1.1815,1.1812,1.1818,1.1797,1.1803,1.1808,1.1787,1.1797,1.1793,1.1789,1.1804,1.181,1.1801,1.1838,1.1824,1.1826,1.1827,1.1836,1.1841,1.1846,1.1787,1.1786,1.1786,0,0,1.1849,1.1844,1.1855,1.1853,1.1849,1.1841,1.1844,1.1837,1.1833,1.1843,1.1828,1.1833,1.1839,1.1838,1.1838,1.187,1.1859,1.1872,1.1893,1.1903,1.1907,1.1911,1.1923,1.1928,1.1874,1.1874,1.1874,0,1.1868,1.1876,1.1862,1.187,1.1871,1.1853,1.1864,1.1863,1.186,1.1861,1.1851,1.1859,1.1856,1.1871,1.1879,1.1879,1.1882,1.1872,1.1908,1.1911,1.1914,1.1926,1.193,1.1876,1.1876,1.1875,1.1875,0,1.1901,1.1906,1.1916,1.1914,1.1915,1.1925,1.1914,1.1917,1.1909,1.1902,1.1914,1.1909,1.1911,1.1914,1.1905,1.1928,1.1922,1.191,1.1893,1.1921,1.1932,1.1936,1.1878,1.1878,1.1877,1.1877,0,0,1.1947,1.1938,1.1942,1.1941,1.1936,1.194,1.195,1.1952,1.1956,1.1955,1.1963,1.1969,1.1958,1.1959,1.195,1.1959,1.1986,1.1946,1.1946,1.1954,1.2011,1.2021,1.2026,1.1978,1.1979,1.1979,1.2012,0,1.1977,1.1992,1.1981,1.1998,1.2004,1.1987,1.1996,1.1994,1.1989,1.1993,1.1988,1.1993,1.1978,1.1978,1.1986,1.1981,1.1997,1.1978,1.1986,1.1986,1.1987,1.2031,1.204,1.2071,1.2016,1.2017,1.2017,0,1.2013,1.2014,1.2032,1.2027,1.2029,1.2036,1.2038,1.2042,1.204,1.2036,1.2037,1.2026,1.2036,1.2019,1.2033,1.202,1.2023,1.2021,1.2022,1.2022,1.2003,1.2033,1.2081,1.2086,1.2023,1.2023,1.2022,0,1.2046,1.2052,1.2063,1.2063,1.2057,1.2063,1.2061,1.2058,1.2061,1.2062,1.2064,1.2067,1.2068,1.2071,1.2062,1.205,1.2077,1.2059,1.2074,1.2075,1.2081,1.208,1.213,1.2082,1.2082,1.2082,1.2082,0,1.208,1.2092,1.2078,1.2085,1.2098,1.2086,1.21,1.2096,1.2094,1.2101,1.2087,1.2094,1.2081,1.2087,1.208,1.2093,1.2094,1.2091,1.2089,1.2092,1.2093,1.2094,1.2092,1.2083,1.2083,1.2083,1.2083,0,1.2118,1.211,1.2122,1.2115,1.2114,1.2124,1.2119,1.2126,1.212,1.2129,1.2131,1.2122,1.2128,1.212,1.2125,1.212,1.2138,1.2133,1.2139,1.2138,1.2154,1.2152,1.2206,1.2212,1.216,1.2161,1.2161,0,1.2141,1.215,1.2145,1.2148,1.2147,1.2153,1.2155,1.2144,1.2147,1.2147,1.2154,1.2159,1.2163,1.2174,1.2168,1.2173,1.2168,1.2186,1.2168,1.2172,1.2168,1.2168,1.2169,1.219,1.219,1.2191,1.2191,0,1.2182,1.2178,1.2181,1.2184,1.2188,1.2189,1.219,1.2194,1.2182,1.2187,1.2193,1.2196,1.2202,1.2208,1.2211,1.2209,1.2199,1.2197,1.2201,1.2204,1.2208,1.2207,1.2149,1.2196,1.2195,1.2195,1.2195,1.2194,1.2213,1.2221,1.2219,1.2224,1.2223,1.2225,1.2231,1.2227,1.2232,1.2236,1.2229,1.2237,1.2237,1.224,1.224,1.2247,1.2239,1.2244,1.2246,1.2247,1.225,1.2207,1.2247,1.2247,1.2247,1.2247,1.2247,0,1.2254,1.2252,1.2257,1.2259,1.2263,1.2253,1.2254,1.2258,1.2266,1.2266,1.227,1.2278,1.2284,1.2279,1.2284,1.2291,1.2286,1.2293,1.2292,1.2292,1.2256,1.2253,1.2296,1.2296,1.2296,1.2296,1.2296,1.2296,1.2276,1.2288,1.2284,1.2296,1.2294,1.2302,1.2304,1.2305,1.2306,1.2315,1.232,1.2317,1.2316,1.2321,1.2326,1.2324,1.2327,1.2336,1.2333,1.2299,1.2294,1.229,1.2286,1.2336,1.2336,1.2368,1.2368,1.2368]},{"header":{"parameterUnit":"m.s-1","parameterCategory":1,"la1":30.2991,"la2":30.254,"lo1":-89.0895,"lo2":-89.0444,"dx":0.0017,"dy":0.0017,"nx":28,"ny":28,"refTime":"2022-11-17T15:00:00:Z","depth":0,"parameterNumber":3,"parameterNumberName":"V-component_of_WINDS"},"data":[0,0,0,0,0,0,0,0,0,0,0,0,0,0,0,0,0,0,0,0,0,0,0,0,0,0,0,0,0,0,0,0,0,0,0,0,0,0,0,0,0,0,0,0,0,0,0,0,0,0,0,0,0,0,0,0,0,0,-5.22,-5.2202,0,-5.2305,-5.2306,-5.2307,-5.2286,-5.2284,-5.2282,-5.228,-5.2384,-5.2388,-5.2393,0,0,0,0,0,0,0,0,0,0,0,0,0,-5.198,-5.1984,-5.22,-5.2202,-5.2203,-5.2304,-5.2306,-5.2307,-5.2286,-5.2284,-5.2282,-5.2279,-5.2382,-5.2388,-5.2393,0,0,0,0,0,0,0,0,0,0,0,0,0,-5.2079,-5.1986,-5.22,-5.2205,-5.2206,-5.2304,-5.2306,-5.2308,-5.2287,-5.2284,-5.2281,-5.2278,-5.2381,-5.2387,-5.2394,-5.2493,0,0,-5.2415,-5.2418,0,0,0,0,0,0,0,0,-5.2074,-5.2087,-5.2203,-5.2205,-5.2206,-5.2279,-5.2266,-5.237,-5.2287,-5.2256,-5.228,-5.2277,-5.2351,-5.236,-5.2386,-5.2498,-5.2502,-5.2415,-5.2419,-5.2422,-5.2424,0,0,0,0,0,0,0,-5.2067,-5.2083,-5.2241,-5.2204,-5.2207,-5.2201,-5.2212,-5.2286,-5.2318,-5.2259,-5.2257,-5.227,-5.2352,-5.2379,-5.2388,-5.2504,-5.2415,-5.2421,-5.2425,-5.2428,-5.2702,-5.2705,0,0,0,0,0,0,-5.2059,-5.2077,-5.2238,-5.2245,-5.2132,-5.2207,-5.2219,-5.2259,-5.2317,-5.2324,-5.2272,-5.2269,-5.2369,-5.238,-5.2392,-5.2512,-5.2422,-5.2429,-5.2432,-5.2699,-5.2703,-5.2706,0,0,0,0,0,0,-5.2054,-5.2073,-5.2234,-5.2161,-5.2181,-5.2214,-5.2258,-5.2262,-5.229,-5.2328,-5.2333,-5.2295,-5.2367,-5.2382,-5.2468,-5.2515,-5.2432,-5.2438,-5.2695,-5.27,-5.2704,-5.2752,0,0,0,0,0,0,-5.2048,-5.2072,-5.211,-5.2162,-5.2185,-5.231,-5.2261,-5.2266,-5.2302,-5.2299,-5.2351,-5.2356,-5.2366,-5.2458,-5.2475,-5.2523,-5.2443,-5.2691,-5.2697,-5.2703,-5.2747,-5.2758,-5.2768,0,0,0,0,0,-5.204,-5.2119,-5.2112,-5.2132,-5.2234,-5.2312,-5.2325,-5.2336,-5.2306,-5.2345,-5.2369,-5.2355,-5.2507,-5.2467,-5.2486,-5.2537,-5.2688,-5.2695,-5.2702,-5.2742,-5.2756,-5.2768,0,0,0,0,0,0,-5.2071,-5.2126,-5.2119,-5.2217,-5.226,-5.2309,-5.2358,-5.2351,-5.2402,-5.2396,-5.2407,-5.2418,-5.2506,-5.253,-5.2484,-5.2635,-5.2593,-5.2604,-5.2617,-5.2631,-5.2641,-5.2633,-5.2449,0,0,0,0,0,-5.2089,-5.2149,-5.2194,-5.2276,-5.2298,-5.2324,-5.2359,-5.2364,-5.2408,-5.2426,-5.2457,-5.25,-5.2558,-5.2595,-5.265,-5.275,-5.2761,-5.2794,-5.2805,-5.2813,-5.2823,-5.2878,-5.2893,-5.273,-5.273,-5.273,0,0,-5.2127,-5.2165,-5.2202,-5.2283,-5.2317,-5.2379,-5.234,-5.2406,-5.2452,-5.2436,-5.252,-5.2543,-5.2592,-5.2686,-5.2728,-5.2708,-5.2871,-5.2822,-5.2829,-5.2834,-5.2887,-5.2902,-5.2916,-5.2735,-5.2734,-5.2733,0,0,-5.2228,-5.2263,-5.2335,-5.2371,-5.2423,-5.2441,-5.2458,-5.2508,-5.2524,-5.2608,-5.2597,-5.2651,-5.275,-5.2786,-5.2816,-5.2932,-5.2921,-5.2949,-5.3005,-5.3058,-5.3071,-5.3083,-5.3124,-5.3139,-5.2959,-5.2959,-5.2959,0,-5.2269,-5.2362,-5.2373,-5.2442,-5.2477,-5.2467,-5.254,-5.2574,-5.2641,-5.2666,-5.2642,-5.2767,-5.2799,-5.2901,-5.2929,-5.2955,-5.2974,-5.2943,-5.3069,-5.308,-5.3091,-5.3131,-5.3146,-5.2962,-5.2962,-5.2961,-5.2961,0,-5.241,-5.2474,-5.2526,-5.2594,-5.2635,-5.2705,-5.2726,-5.2767,-5.2768,-5.2788,-5.2873,-5.2912,-5.2975,-5.2999,-5.3,-5.3101,-5.3087,-5.3066,-5.3024,-5.311,-5.3147,-5.3162,-5.2967,-5.2966,-5.2965,-5.2964,0,0,-5.2533,-5.2606,-5.2625,-5.2655,-5.2713,-5.2763,-5.2832,-5.2895,-5.293,-5.2977,-5.3035,-5.312,-5.3101,-5.3136,-5.3141,-5.3188,-5.3277,-5.3161,-5.3163,-5.3182,-5.3391,-5.3407,-5.3424,-5.327,-5.3273,-5.3275,-5.3387,0,-5.2639,-5.2764,-5.2776,-5.2887,-5.2947,-5.2938,-5.2999,-5.304,-5.306,-5.3113,-5.3135,-5.3195,-5.3165,-5.3187,-5.3232,-5.3257,-5.3319,-5.3249,-5.3324,-5.3327,-5.3312,-5.3444,-5.346,-5.3564,-5.3402,-5.3404,-5.3406,0,-5.2781,-5.2833,-5.2951,-5.3001,-5.3026,-5.3081,-5.3139,-5.319,-5.3237,-5.3248,-5.3288,-5.3287,-5.3358,-5.3313,-5.3411,-5.3363,-5.3394,-5.341,-5.3415,-5.3422,-5.3372,-5.3455,-5.3597,-5.3613,-5.3429,-5.3427,-5.3426,0,-5.2859,-5.2959,-5.3043,-5.3069,-5.3129,-5.3168,-5.3194,-5.3238,-5.3275,-5.3326,-5.335,-5.3408,-5.344,-5.3485,-5.3499,-5.3465,-5.3597,-5.3553,-5.3607,-5.3607,-5.3635,-5.3634,-5.3785,-5.3655,-5.3655,-5.3655,-5.3655,0,-5.2977,-5.3049,-5.3079,-5.313,-5.3211,-5.3223,-5.3302,-5.3327,-5.3366,-5.3422,-5.3417,-5.3469,-5.3485,-5.3539,-5.355,-5.363,-5.3644,-5.3654,-5.3657,-5.3655,-5.3654,-5.3676,-5.3669,-5.3659,-5.3658,-5.3657,-5.3657,0,-5.3079,-5.3101,-5.3192,-5.3242,-5.3256,-5.3313,-5.3355,-5.3404,-5.3424,-5.3494,-5.3511,-5.3541,-5.3605,-5.3623,-5.37,-5.3707,-5.38,-5.3796,-5.3785,-5.3785,-5.3839,-5.3834,-5.401,-5.4034,-5.3889,-5.389,-5.3891,0,-5.3153,-5.3208,-5.3265,-5.3302,-5.3331,-5.3391,-5.3429,-5.3444,-5.3484,-5.3542,-5.3584,-5.3647,-5.3698,-5.38,-5.3828,-5.3887,-5.3884,-5.3941,-5.3892,-5.3889,-5.3885,-5.3881,-5.3887,-5.3951,-5.3952,-5.3953,-5.3954,0,-5.3282,-5.3291,-5.3347,-5.3407,-5.3453,-5.3501,-5.3547,-5.3577,-5.3599,-5.3644,-5.371,-5.375,-5.3828,-5.3891,-5.395,-5.3976,-5.3969,-5.397,-5.3986,-5.3985,-5.3976,-5.3982,-5.3811,-5.3966,-5.3964,-5.3964,-5.3963,-5.3963,-5.3372,-5.3421,-5.3469,-5.3532,-5.3568,-5.3612,-5.366,-5.3686,-5.3742,-5.3808,-5.3813,-5.3884,-5.3929,-5.4009,-5.4038,-5.4093,-5.4076,-5.4099,-5.4105,-5.411,-5.4115,-5.3967,-5.4104,-5.4104,-5.4103,-5.4103,-5.4103,0,-5.3501,-5.3532,-5.359,-5.3655,-5.3704,-5.3694,-5.3744,-5.3786,-5.3849,-5.3893,-5.3944,-5.4019,-5.4081,-5.4114,-5.4174,-5.4212,-5.421,-5.4228,-5.4225,-5.4231,-5.4127,-5.4107,-5.4228,-5.4228,-5.4228,-5.4228,-5.4228,-5.4228,-5.3574,-5.3657,-5.3672,-5.3773,-5.3802,-5.3873,-5.3903,-5.3943,-5.3977,-5.4063,-5.4114,-5.4135,-5.4175,-5.4238,-5.4294,-5.4302,-5.4324,-5.4344,-5.435,-5.4251,-5.4238,-5.4226,-5.4208,-5.4348,-5.4348,-5.445,-5.4451,-5.4451]}]]